Weather in Udmurtskiye Klyuchi

Russia / Udmurt Republic     58°02′26″N   52°27′38″E
temp.,
°C
wind,
m/s
gust,
m/s
humid.,
%
clouds,
%
prec.,
mm/h
press.,
hPa
HPBL,
m
16 september, thu
thu1601:00+4wnw4895100 0.1 1002632
04:00+3wnw5896100 0.3 1003676
07:00+3nw4888100 0.1 1004912
10:00+4wnw5993100 0.1 1004660
13:00+4wnw61094100 0.0 1005923
16:00+5nw61297100 0.1 1006892
19:00+5nw61196100 0.1 10071070
22:00+5nw61293100 0.1 1007890
17 september, fri
fri1701:00+5nw51196100 0.3 1008717
04:00+5nw51095100 0.3 1009701
07:00+5nw4893100 0.1 1009813
10:00+6nw589099 0.1 1010731
13:00+7nw578497 0.4 1011932
16:00+6nw4790100 0.9 1011793
19:00+4nnw3793100 0.4 1013548
22:00+5wnw3594100 0.6 1013242
18 september, sat
sat1801:00+4nnw4695100 0.3 1013672
04:00+2nnw3890100 0.4 1014690
07:00+2nnw41092100 0.1 1015657
10:00+4nnw587876 0.3 10161044
13:00+6nnw696994 0.3 10161420
16:00+5nnw6970100 0.5 10171231
19:00+3nw5118264 0.1 1018758
22:00+2nw5118758 0.1 1018697
19 september, sun
sun1901:00+1nw5118895 0.0 1018754
04:00+1wnw5118798 0.0 1018635
07:00+1nw5108695 0.0 1019856
10:00+3nw51074100 0.0 10201047
13:00+5nw686195 0.0 10201153
16:00+6nw675749 0.0 10211232
19:00+3nw4972100 0.0 1023507
22:000nw398530 0.0 1024282
20 september, mon
mon2001:00−1nw379289 0.0 1026164
04:00−1nw229164 0.0 102727
07:00−1n248717 0.0 1028117
10:00+5nne2362100 0.0 1028669
13:00+8ne225196 0.0 10281124
16:00+9ene124851 0.0 10281294
19:00+3ene1172100 0.0 103010
22:00+2e238299 0.0 103156